ABS-3A

Last updated on Wed Sep 09 2026 00:03:00 GMT+0000 (Coordinated Universal Time)

1 40424U 15010A 26251.37323285 -.00000047 00000+0 00000+0 0 9990 2 40424 0.0077 142.5140 0001857 330.8649 5.4592 1.00270005 42210
UTC large
Height (km)
Speed (km/s)
/
Latitude / Longitude
Inclination (degrees)
Orbital Period (minutes)
Azimuth
Elevation
Range (km)
Doppler Factor

Next 0 passes for location: London (51.5072 / 0.1276)

No passes found over London.
ABS-3A